FW2982 Weather Reports


time (UTC)temp
F
wind
direction
speed
knots
gust
knots
rain 1hr
in
rain 24hr
in
rain mn
in
humidity
%
barometer
mb
20260509130833 60 306 0.0 2.6 0.00 0.00 0.00 68 1009.2
20260509130611 59 306 0.9 2.6 0.00 0.00 0.00 66 1009.2
20260509125831 59 298 0.9 2.6 0.00 0.00 0.00 67 1009.1
20260509125333 59 45 0.0 3.5 0.00 0.00 0.00 69 1009.1
20260509124831 59 35 0.9 3.5 0.00 0.00 0.00 67 1009.0
20260509124330 59 69 0.0 2.6 0.00 0.00 0.00 67 1009.0
20260509123833 58 109 0.9 2.6 0.00 0.00 0.00 67 1009.1
20260509123331 59 128 0.0 1.7 0.00 0.00 0.00 67 1008.9
20260509122833 58 216 0.0 4.3 0.00 0.00 0.00 66 1009.0
20260509122333 58 303 0.9 4.3 0.00 0.00 0.00 67 1008.9
20260509122112 58 259 0.9 2.6 0.00 0.00 0.00 67 1009.0
20260509121332 58 234 0.0 1.7 0.00 0.00 0.00 68 1009.0
20260509120831 58 235 0.0 1.7 0.00 0.00 0.00 68 1009.0
20260509120332 58 230 0.9 2.6 0.00 0.00 0.00 67 1009.1
20260509115831 58 247 0.9 2.6 0.00 0.00 0.00 66 1008.9
20260509115354 58 140 0.0 3.5 0.00 0.00 0.00 67 1008.9
20260509115347 58 179 0.9 2.6 0.00 0.00 0.00 68 1008.8
20260509114331 58 140 0.0 3.5 0.00 0.00 0.00 66 1008.9
20260509113829 58 234 0.0 1.7 0.00 0.00 0.00 67 1009.0
20260509113329 58 235 0.9 3.5 0.00 0.00 0.00 66 1009.0
20260509112829 58 66 0.9 3.5 0.00 0.00 0.00 65 1008.9
20260509112331 57 148 0.0 3.5 0.00 0.00 0.00 66 1008.8
20260509111828 58 176 0.9 2.6 0.00 0.00 0.00 66 1008.7
20260509111327 58 121 0.0 2.6 0.00 0.00 0.00 66 1008.8
20260509110824 58 120 0.0 1.7 0.00 0.00 0.00 64 1008.8
20260509110325 58 24 0.0 0.9 0.00 0.00 0.00 63 1008.7
20260509105822 58 24 0.0 1.7 0.00 0.00 0.00 63 1008.7
20260509105348 58 264 0.0 1.7 0.00 0.00 0.00 61 1008.6
20260509105340 58 24 0.0 1.7 0.00 0.00 0.00 61 1008.6
20260509104323 57 10 0.0 3.5 0.00 0.00 0.00 62 1008.6
20260509103823 58 10 0.9 3.5 0.00 0.00 0.00 63 1008.6
20260509103324 58 220 0.0 1.7 0.00 0.00 0.00 60 1008.5
20260509102823 58 220 0.0 1.7 0.00 0.00 0.00 62 1008.6
20260509102322 57 220 0.9 2.6 0.00 0.00 0.00 61 1008.5
20260509101820 57 220 0.0 2.6 0.00 0.00 0.00 63 1008.5
20260509101320 57 220 0.0 1.7 0.00 0.00 0.00 64 1008.4
20260509100821 58 220 0.0 1.7 0.00 0.00 0.00 61 1008.4
20260509100319 58 219 0.0 2.6 0.00 0.00 0.00 62 1008.4
20260509095815 58 219 0.9 3.5 0.00 0.00 0.00 60 1008.3
20260509095314 58 216 1.7 3.5 0.00 0.00 0.00 60 1008.3
20260509095056 58 212 0.9 1.7 0.00 0.00 0.00 61 1008.2
20260509094316 58 212 0.9 3.5 0.00 0.00 0.00 61 1008.2
20260509093815 58 212 0.9 3.5 0.00 0.00 0.00 60 1008.2
20260509093313 58 226 0.9 2.6 0.00 0.00 0.00 60 1008.3
20260509092811 57 230 1.7 2.6 0.00 0.00 0.00 60 1008.4
20260509092308 57 245 0.0 1.7 0.00 0.00 0.00 60 1008.5
20260509092050 57 245 0.9 3.5 0.00 0.00 0.00 61 1008.6
20260509091307 57 247 1.7 3.5 0.00 0.00 0.00 60 1008.6
20260509090804 57 223 1.7 3.5 0.00 0.00 0.00 61 1008.6
20260509090305 57 224 0.9 2.6 0.00 0.00 0.00 61 1008.7
20260509085803 57 226 1.7 2.6 0.00 0.00 0.00 62 1008.7
20260509085306 57 49 0.9 2.6 0.00 0.00 0.00 61 1008.6
20260509084803 57 224 0.9 3.5 0.00 0.00 0.00 61 1008.8
20260509084302 56 223 0.0 3.5 0.00 0.00 0.00 63 1008.7
20260509083803 56 89 0.0 2.6 0.00 0.00 0.00 63 1008.8
20260509083302 56 87 0.0 2.6 0.00 0.00 0.00 63 1008.8
20260509082803 57 157 0.9 2.6 0.00 0.00 0.00 63 1008.9
20260509082306 57 353 0.9 3.5 0.00 0.00 0.00 63 1008.9
20260509081802 57 216 1.7 3.5 0.00 0.00 0.00 62 1008.8
20260509081303 56 275 0.9 3.5 0.00 0.00 0.00 64 1009.0
20260509080803 56 262 0.9 3.5 0.00 0.00 0.00 63 1009.0
20260509080302 56 314 0.9 3.5 0.00 0.00 0.00 63 1009.1
20260509075802 56 329 0.9 3.5 0.00 0.00 0.00 63 1009.1
20260509075544 57 247 0.9 1.7 0.00 0.00 0.00 63 1009.2
20260509074802 57 340 0.9 2.6 0.00 0.00 0.00 63 1009.2
20260509074303 57 209 0.9 3.5 0.00 0.00 0.00 61 1009.3
20260509073803 57 231 0.9 3.5 0.00 0.00 0.00 61 1009.3
20260509073256 57 207 0.9 5.2 0.00 0.00 0.00 61 1009.3
20260509072755 57 221 0.9 5.2 0.00 0.00 0.00 61 1009.3
20260509072535 57 0 0.9 2.6 0.00 0.00 0.00 62 1009.3
20260509071755 57 214 0.0 2.6 0.00 0.00 0.00 62 1009.2
20260509071256 57 221 0.0 2.6 0.00 0.00 0.00 63 1009.3
20260509070754 57 147 0.9 1.7 0.00 0.00 0.00 62 1009.2
20260509070252 57 61 0.9 1.7 0.00 0.00 0.00 61 1009.2
20260509065751 57 79 0.9 2.6 0.00 0.00 0.00 61 1009.2
20260509065251 57 355 0.9 2.6 0.00 0.00 0.00 61 1009.3
20260509064751 57 233 0.9 2.6 0.00 0.00 0.00 60 1009.3
20260509064249 57 189 0.9 1.7 0.00 0.00 0.00 60 1009.3
20260509063750 58 189 0.9 2.6 0.00 0.00 0.00 58 1009.3
20260509063251 58 213 0.9 2.6 0.00 0.00 0.00 58 1009.3
20260509062750 58 219 0.9 1.7 0.00 0.00 0.00 58 1009.4
20260509062519 58 309 0.9 3.5 0.00 0.00 0.00 59 1009.4
20260509061743 58 309 0.9 3.5 0.00 0.00 0.00 58 1009.5
20260509061240 58 250 0.9 3.5 0.00 0.00 0.00 57 1009.5
20260509060739 58 257 0.0 3.5 0.00 0.00 0.00 57 1009.6
20260509060235 58 258 1.7 3.5 0.00 0.00 0.00 57 1009.6
20260509060017 58 213 0.9 2.6 0.00 0.00 0.00 58 1009.5
20260509055516 58 212 0.0 2.6 0.00 0.00 0.00 59 1009.6
20260509054734 58 212 0.9 2.6 0.00 0.00 0.00 60 1009.6
20260509054512 57 274 0.9 1.7 0.00 0.00 0.00 59 1009.6
20260509053731 57 261 0.9 1.7 0.00 0.00 0.00 60 1009.6
20260509053514 57 262 0.9 1.7 0.00 0.00 0.00 61 1009.6
20260509052731 57 38 0.0 1.7 0.00 0.00 0.00 62 1009.6
20260509052231 56 25 0.0 2.6 0.00 0.00 0.00 61 1009.6
20260509051732 57 25 0.0 2.6 0.00 0.00 0.00 60 1009.7
20260509051231 57 230 0.9 2.6 0.00 0.00 0.00 60 1009.8
20260509051008 57 61 0.0 1.7 0.00 0.00 0.00 59 1009.8
20260509050229 57 61 0.0 1.7 0.00 0.00 0.00 58 1009.6
20260509045730 57 292 0.0 1.7 0.00 0.00 0.00 58 1009.6
20260509045231 57 213 0.0 1.7 0.00 0.00 0.00 59 1009.6
20260509044730 57 209 0.0 0.9 0.00 0.00 0.00 59 1009.5
20260509044229 57 209 0.0 1.7 0.00 0.00 0.00 58 1009.6
20260509043729 57 209 0.0 2.6 0.00 0.00 0.00 58 1009.6
20260509043229 57 207 0.9 2.6 0.00 0.00 0.00 60 1009.6
20260509042729 57 231 0.0 2.6 0.00 0.00 0.00 58 1009.8
20260509042508 57 293 0.9 3.5 0.00 0.00 0.00 58 1009.8
20260509041730 57 254 0.0 3.5 0.00 0.00 0.00 58 1009.8
20260509041229 57 288 0.0 3.5 0.00 0.00 0.00 58 1009.8
20260509040728 57 266 0.0 3.5 0.00 0.00 0.00 58 1009.8
20260509040510 57 343 0.0 2.6 0.00 0.00 0.00 58 1009.8
20260509035728 57 216 0.0 1.7 0.00 0.00 0.00 59 1009.8
20260509035509 57 279 0.0 1.7 0.00 0.00 0.00 60 1009.9
20260509034728 57 279 0.0 2.6 0.00 0.00 0.00 59 1009.8
20260509034512 57 252 0.0 2.6 0.00 0.00 0.00 60 1009.9
20260509033727 57 309 0.0 1.7 0.00 0.00 0.00 60 1009.8
20260509033227 57 313 0.0 1.7 0.00 0.00 0.00 61 1009.9
20260509032727 57 314 0.0 1.7 0.00 0.00 0.00 62 1009.9
20260509032224 56 0 0.0 1.7 0.00 0.00 0.00 62 1009.8
20260509031724 56 8 0.0 2.6 0.00 0.00 0.00 63 1009.9
20260509031225 56 17 0.9 2.6 0.00 0.00 0.00 63 1010.1
20260509030720 57 31 0.0 0.9 0.00 0.00 0.00 62 1010.1
20260509030504 57 31 0.0 0.9 0.00 0.00 0.00 61 1010.1
20260509025722 56 31 0.0 0.9 0.00 0.00 0.00 61 1010.1
20260509025221 57 31 0.0 0.9 0.00 0.00 0.00 62 1010.1
20260509024721 57 31 0.0 0.9 0.00 0.00 0.00 62 1010.1
20260509024219 57 31 0.0 0.9 0.00 0.00 0.00 60 1010.2
20260509023957 57 42 0.0 0.9 0.00 0.00 0.00 59 1010.2
20260509023217 57 42 0.0 0.9 0.00 0.00 0.00 59 1010.1
20260509022716 58 42 0.0 0.9 0.00 0.00 0.00 59 1010.1
20260509022215 58 42 0.0 0.9 0.00 0.00 0.00 59 1010.1
20260509021717 58 42 0.0 0.9 0.00 0.00 0.00 59 1010.1
20260509021216 58 42 0.0 0.9 0.00 0.00 0.00 58 1010.1
20260509020954 58 42 0.0 0.9 0.00 0.00 0.00 57 1010.0
20260509020451 58 42 0.0 0.9 0.00 0.00 0.00 57 1010.0
20260509015713 59 42 0.0 0.9 0.00 0.00 0.00 56 1010.0
20260509015211 59 42 0.0 0.9 0.00 0.00 0.00 57 1009.9
20260509014951 59 42 0.0 0.9 0.00 0.00 0.00 57 1009.9
20260509014211 59 42 0.0 0.9 0.00 0.00 0.00 57 1009.9
20260509013711 60 42 0.0 0.0 0.00 0.00 0.00 57 1009.9
20260509013450 60 42 0.0 0.9 0.00 0.00 0.00 56 1010.0
20260509012709 60 42 0.0 0.9 0.00 0.00 0.00 55 1010.0
20260509012210 60 42 0.0 0.9 0.00 0.00 0.00 55 1010.0
20260509011707 60 42 0.0 1.7 0.00 0.00 0.00 55 1010.0
20260509011207 60 42 0.0 1.7 0.00 0.00 0.00 57 1009.9
20260509010708 61 165 0.0 0.9 0.00 0.00 0.00 56 1009.9
20260509010207 62 165 0.0 0.9 0.00 0.00 0.00 54 1009.8
20260509005731 62 165 0.0 0.9 0.00 0.00 0.00 52 1009.7
20260509005721 62 165 0.0 0.0 0.00 0.00 0.00 54 1009.8
20260509004943 63 165 0.0 0.9 0.00 0.00 0.00 51 1009.7
20260509004202 63 165 0.0 0.9 0.00 0.00 0.00 50 1009.6
20260509003702 64 165 0.0 0.0 0.00 0.00 0.00 49 1009.6
20260509003445 65 165 0.0 0.9 0.00 0.00 0.00 48 1009.5
20260509002941 65 165 0.0 0.9 0.00 0.00 0.00 48 1009.5
20260509002203 65 166 0.0 0.9 0.00 0.00 0.00 48 1009.5
20260509001704 65 166 0.0 0.9 0.00 0.00 0.00 46 1009.5
20260509001201 66 165 0.0 0.0 0.00 0.00 0.00 47 1009.5
20260509000703 66 165 0.0 0.9 0.00 0.00 0.00 46 1009.4
20260509000145 66 165 0.0 1.7 0.00 0.00 0.00 45 1009.3
20260508235644 66 165 0.9 1.7 0.00 0.00 0.00 44 1009.2
20260508235425 66 245 0.0 0.9 0.00 0.00 0.00 45 1009.1
20260508234645 66 245 0.0 0.9 0.00 0.00 0.00 45 1009.1
20260508234419 67 245 0.0 1.7 0.00 0.00 0.00 45 1009.2
20260508233639 67 245 0.0 2.6 0.00 0.00 0.00 45 1009.2
20260508233139 67 247 0.0 2.6 0.00 0.00 0.00 45 1009.2
20260508232641 67 110 0.0 1.7 0.00 0.00 0.00 44 1009.1
20260508232137 67 104 0.0 1.7 0.00 0.00 0.00 44 1009.1
20260508231637 67 103 0.0 1.7 0.00 0.00 0.00 44 1009.1
20260508231131 67 149 0.9 1.7 0.00 0.00 0.00 42 1009.0
20260508230909 68 120 0.0 1.7 0.00 0.00 0.00 42 1009.0
20260508230123 68 118 0.0 4.3 0.00 0.00 0.00 42 1009.1
20260508225624 68 188 1.7 4.3 0.00 0.00 0.00 40 1009.0
20260508225403 68 237 1.7 4.3 0.00 0.00 0.00 40 1008.9
20260508224953 69 255 0.0 0.9 0.00 0.00 0.00 39 1008.8
20260508224700 69 210 1.7 4.3 0.00 0.00 0.00 39 1008.9
20260508224423 69 58 0.9 3.5 0.00 0.00 0.00 41 1008.8
20260508223121 69 257 0.0 1.7 0.00 0.00 0.00 39 1008.8
20260508222620 69 257 0.0 1.7 0.00 0.00 0.00 38 1008.8
20260508222122 70 257 0.0 0.9 0.00 0.00 0.00 40 1008.9
20260508221621 70 257 0.0 1.7 0.00 0.00 0.00 37 1008.9
20260508221121 70 257 0.9 1.7 0.00 0.00 0.00 38 1008.9
20260508220620 70 320 0.0 1.7 0.00 0.00 0.00 36 1009.0
20260508220401 71 320 0.0 1.7 0.00 0.00 0.00 34 1009.0
20260508215620 71 4 0.0 2.6 0.00 0.00 0.00 35 1009.0
20260508215120 71 209 0.0 3.5 0.00 0.00 0.00 33 1009.0
20260508214619 72 206 1.7 8.7 0.00 0.00 0.00 32 1008.9
20260508214358 73 265 1.7 8.7 0.00 0.00 0.00 31 1008.8
20260508213621 73 209 2.6 3.5 0.00 0.00 0.00 31 1008.8
20260508213121 73 283 0.9 5.2 0.00 0.00 0.00 33 1008.9
20260508212620 73 344 2.6 5.2 0.00 0.00 0.00 32 1008.9
20260508212119 73 220 0.9 3.5 0.00 0.00 0.00 33 1009.0
20260508211857 73 154 1.7 3.5 0.00 0.00 0.00 33 1009.0
20260508211119 72 344 0.9 2.6 0.00 0.00 0.00 34 1009.0
20260508210619 72 243 0.9 2.6 0.00 0.00 0.00 34 1008.9
20260508210120 72 247 1.7 5.2 0.00 0.00 0.00 32 1008.9
20260508205618 73 135 0.0 5.2 0.00 0.00 0.00 31 1008.9
20260508205118 73 276 1.7 4.3 0.00 0.00 0.00 31 1009.1
20260508204619 73 279 1.7 4.3 0.00 0.00 0.00 29 1009.0
20260508204118 73 326 1.7 6.1 0.00 0.00 0.00 33 1009.1
20260508203855 74 345 2.6 6.1 0.00 0.00 0.00 32 1009.2
20260508203119 74 238 1.7 4.3 0.00 0.00 0.00 30 1009.2
20260508202620 74 217 1.7 5.2 0.00 0.00 0.00 32 1009.2
20260508202118 74 188 1.7 6.1 0.00 0.00 0.00 32 1009.3
20260508201859 74 196 1.7 6.1 0.00 0.00 0.00 30 1009.3
20260508201117 74 265 2.6 4.3 0.00 0.00 0.00 32 1009.5
20260508200617 74 255 1.7 7.8 0.00 0.00 0.00 32 1009.4
20260508200142 73 199 1.7 7.8 0.00 0.00 0.00 32 1009.4
20260508200133 73 303 2.6 7.8 0.00 0.00 0.00 31 1009.4
20260508195359 73 196 0.9 7.8 0.00 0.00 0.00 30 1009.6
20260508194617 74 257 1.7 5.2 0.00 0.00 0.00 31 1009.6
20260508194118 73 278 1.7 4.3 0.00 0.00 0.00 31 1009.8
20260508193619 72 243 0.9 5.2 0.00 0.00 0.00 34 1009.9
20260508193117 74 278 1.7 5.2 0.00 0.00 0.00 34 1010.0
20260508192618 73 264 1.7 4.3 0.00 0.00 0.00 36 1010.0
20260508192117 74 45 1.7 6.1 0.00 0.00 0.00 36 1009.9
20260508191618 74 173 1.7 9.6 0.00 0.00 0.00 32 1010.0
20260508191117 74 254 3.5 9.6 0.00 0.00 0.00 31 1010.1
20260508190616 74 202 1.7 6.1 0.00 0.00 0.00 31 1010.2
20260508190116 74 233 2.6 6.1 0.00 0.00 0.00 33 1010.4
20260508185619 74 324 1.7 6.1 0.00 0.00 0.00 34 1010.3
20260508185357 74 207 2.6 4.3 0.00 0.00 0.00 32 1010.4
20260508184855 73 223 0.0 4.3 0.00 0.00 0.00 34 1010.5
20260508184115 73 161 0.9 4.3 0.00 0.00 0.00 36 1010.5
20260508183616 73 324 0.9 4.3 0.00 0.00 0.00 34 1010.7
20260508183116 72 278 1.7 3.5 0.00 0.00 0.00 34 1010.7
20260508182615 73 327 0.9 5.2 0.00 0.00 0.00 33 1010.8
20260508182116 72 272 0.9 5.2 0.00 0.00 0.00 35 1010.8
20260508181642 74 228 0.9 5.2 0.00 0.00 0.00 35 1010.7
20260508181633 74 250 0.9 3.5 0.00 0.00 0.00 32 1010.8
20260508180853 74 307 1.7 5.2 0.00 0.00 0.00 32 1010.8
20260508180144 73 334 2.6 5.2 0.00 0.00 0.00 31 1011.1
20260508180134 74 107 1.7 5.2 0.00 0.00 0.00 35 1010.9
20260508175115 73 298 2.6 7.8 0.00 0.00 0.00 33 1011.1
20260508174615 74 251 1.7 7.8 0.00 0.00 0.00 34 1011.1
20260508174115 75 258 1.7 6.1 0.00 0.00 0.00 32 1011.0
20260508173615 74 302 2.6 6.1 0.00 0.00 0.00 32 1011.0
20260508173113 74 247 2.6 6.1 0.00 0.00 0.00 34 1011.2
20260508172853 75 309 2.6 7.8 0.00 0.00 0.00 33 1011.2
20260508172110 74 55 1.7 7.8 0.00 0.00 0.00 31 1011.3
20260508171851 74 197 1.7 4.3 0.00 0.00 0.00 36 1011.5
20260508171111 73 259 2.6 6.1 0.00 0.00 0.00 33 1011.4
20260508170611 73 224 1.7 6.1 0.00 0.00 0.00 32 1011.6
20260508170111 74 189 2.6 6.1 0.00 0.00 0.00 31 1011.7
20260508165609 75 271 0.9 3.5 0.00 0.00 0.00 35 1011.6
20260508165109 74 259 1.7 4.3 0.00 0.00 0.00 36 1011.7
20260508164847 74 21 1.7 4.3 0.00 0.00 0.00 37 1011.7
20260508164107 74 207 1.7 4.3 0.00 0.00 0.00 36 1011.8
20260508163606 74 313 1.7 4.3 0.00 0.00 0.00 35 1011.9
20260508163105 73 226 1.7 6.1 0.00 0.00 0.00 35 1011.8
20260508162845 74 250 1.7 6.1 0.00 0.00 0.00 36 1012.0
20260508162103 73 200 2.6 5.2 0.00 0.00 0.00 33 1012.1
20260508161603 74 320 0.9 6.1 0.00 0.00 0.00 38 1012.3
20260508161103 72 293 2.6 6.1 0.00 0.00 0.00 35 1012.3
20260508160604 71 358 2.6 5.2 0.00 0.00 0.00 33 1012.4
20260508160103 72 302 1.7 4.3 0.00 0.00 0.00 32 1012.5
20260508155538 72 62 1.7 6.1 0.00 0.00 0.00 36 1012.5
20260508155128 73 286 1.7 5.2 0.00 0.00 0.00 39 1012.6
20260508155115 71 285 2.6 8.7 0.00 0.00 0.00 35 1012.5
20260508154837 72 247 3.5 8.7 0.00 0.00 0.00 35 1012.7
20260508153534 71 259 1.7 4.3 0.00 0.00 0.00 36 1012.6
20260508153031 71 240 1.7 6.1 0.00 0.00 0.00 36 1012.6
20260508152532 72 279 2.6 6.1 0.00 0.00 0.00 37 1012.7
20260508152031 71 275 2.6 5.2 0.00 0.00 0.00 35 1012.7
20260508151526 72 14 0.0 4.3 0.00 0.00 0.00 38 1012.8
20260508151027 72 42 1.7 5.2 0.00 0.00 0.00 37 1013.0
20260508150527 72 262 2.6 11.3 0.00 0.00 0.00 36 1013.0
20260508150029 72 210 3.5 11.3 0.00 0.00 0.00 36 1013.0
20260508145526 72 288 3.5 8.7 0.00 0.00 0.00 36 1013.1
20260508145307 72 261 1.7 3.5 0.00 0.00 0.00 38 1013.1
20260508144804 72 299 0.9 3.5 0.00 0.00 0.00 38 1013.1
20260508144024 70 69 0.9 3.5 0.00 0.00 0.00 40 1013.1
20260508143524 69 281 0.9 3.5 0.00 0.00 0.00 38 1013.2
20260508143302 69 223 0.9 3.5 0.00 0.00 0.00 38 1013.2
20260508142522 69 302 0.9 3.5 0.00 0.00 0.00 42 1013.2
20260508142300 69 11 0.9 4.3 0.00 0.00 0.00 41 1013.3
20260508141518 69 213 1.7 4.3 0.00 0.00 0.00 40 1013.3
20260508141021 68 257 0.9 3.5 0.00 0.00 0.00 42 1013.3
20260508140520 67 41 0.9 3.5 0.00 0.00 0.00 41 1013.3
20260508140020 67 227 0.9 3.5 0.00 0.00 0.00 43 1013.4
20260508135518 67 223 0.9 1.7 0.00 0.00 0.00 42 1013.3
20260508135017 66 255 0.0 1.7 0.00 0.00 0.00 46 1013.3
20260508134757 66 245 0.0 4.3 0.00 0.00 0.00 44 1013.4
20260508134017 66 243 1.7 4.3 0.00 0.00 0.00 42 1013.4
20260508133516 67 289 0.0 3.5 0.00 0.00 0.00 44 1013.6
20260508133015 65 7 0.0 3.5 0.00 0.00 0.00 45 1013.5
20260508132516 66 343 0.0 6.1 0.00 0.00 0.00 44 1013.6
20260508132254 66 285 0.9 6.1 0.00 0.00 0.00 44 1013.6
20260508131510 65 347 0.0 2.6 0.00 0.00 0.00 46 1013.6